TimeCST,TemperatureF,Dew PointF,Humidity,Sea Level PressureIn,VisibilityMPH,Wind Direction,Wind SpeedMPH,Gust SpeedMPH,PrecipitationIn,Events,Conditions,WindDirDegrees,DateUTC
12:53 AM,33.1,21.0,61,30.28,10.0,East,9.2,-,N/A,,Clear,100,2012-11-12 06:53:00
1:53 AM,30.0,19.0,64,30.31,10.0,East,5.8,-,N/A,,Clear,100,2012-11-12 07:53:00
2:53 AM,28.9,19.0,67,30.32,10.0,ESE,4.6,-,N/A,,Clear,110,2012-11-12 08:53:00
3:53 AM,25.0,16.0,69,30.36,10.0,ENE,4.6,-,N/A,,Clear,60,2012-11-12 09:53:00
4:53 AM,24.1,16.0,71,30.38,10.0,NE,4.6,-,N/A,,Clear,50,2012-11-12 10:53:00
5:53 AM,23.0,15.1,72,30.39,10.0,Calm,Calm,-,N/A,,Clear,0,2012-11-12 11:53:00
6:53 AM,24.1,16.0,71,30.41,10.0,Calm,Calm,-,N/A,,Clear,0,2012-11-12 12:53:00
7:53 AM,26.1,15.1,63,30.43,10.0,Calm,Calm,-,N/A,,Clear,0,2012-11-12 13:53:00
8:53 AM,34.0,19.9,56,30.43,10.0,NW,4.6,-,N/A,,Clear,320,2012-11-12 14:53:00
9:53 AM,39.0,19.9,46,30.46,10.0,SE,3.5,-,N/A,,Clear,130,2012-11-12 15:53:00
10:53 AM,43.0,19.9,40,30.46,10.0,SW,6.9,-,N/A,,Clear,220,2012-11-12 16:53:00
11:53 AM,46.0,18.0,33,30.44,10.0,Variable,4.6,-,N/A,,Clear,0,2012-11-12 17:53:00
12:53 PM,48.9,16.0,27,30.42,10.0,Calm,Calm,-,N/A,,Clear,0,2012-11-12 18:53:00
1:53 PM,51.1,12.9,22,30.40,10.0,South,9.2,-,N/A,,Partly Cloudy,190,2012-11-12 19:53:00
2:53 PM,53.1,10.0,18,30.38,10.0,Variable,4.6,-,N/A,,Clear,0,2012-11-12 20:53:00
3:53 PM,51.1,12.0,21,30.38,10.0,Calm,Calm,-,N/A,,Clear,0,2012-11-12 21:53:00
4:53 PM,51.1,12.9,22,30.38,10.0,South,9.2,-,N/A,,Clear,170,2012-11-12 22:53:00
5:53 PM,46.9,12.0,24,30.39,10.0,SSE,6.9,-,N/A,,Partly Cloudy,150,2012-11-12 23:53:00
6:53 PM,44.1,14.0,30,30.42,10.0,SSE,8.1,-,N/A,,Partly Cloudy,150,2012-11-13 00:53:00
7:53 PM,42.1,15.1,34,30.43,10.0,SE,6.9,-,N/A,,Partly Cloudy,130,2012-11-13 01:53:00
8:53 PM,39.0,14.0,36,30.42,10.0,SE,6.9,-,N/A,,Clear,140,2012-11-13 02:53:00
9:53 PM,37.9,15.1,39,30.43,10.0,SE,9.2,-,N/A,,Clear,140,2012-11-13 03:53:00
10:53 PM,36.0,16.0,44,30.43,10.0,SSE,8.1,-,N/A,,Clear,150,2012-11-13 04:53:00
11:53 PM,35.1,17.1,48,30.42,10.0,SSE,8.1,-,N/A,,Clear,150,2012-11-13 05:53:00